Boulder Muni, Boulder, CO, CO

4:12 AM MDT on October 16, 2019 (GMT -0600)
Boulder Muni, Boulder, CO

Weather History for KBDU - August, 2019

Change the Weather History Date:

Wednesday, August 7, 2019

  Actual Average Record
Temperature  
Mean Temperature 76 °F -  
Max Temperature 88 °F - 89 °F (2015)
Min Temperature 63 °F - 55 °F (2015)
Degree Days  
Heating Degree Days 0    
Month to date heating degree days 0  
Cooling Degree Days 11    
Month to date cooling degree days 75  
Growing Degree Days 24 (Base 50)    
Moisture  
Dew Point 51 °F    
Average Humidity 55    
Maximum Humidity 81    
Minimum Humidity 28    
Precipitation  
Precipitation 0.12 in - 0.54 in (2017)
Snow  
Snow 0.00 in - - ()
Snow Depth 0.00 in    
Sea Level Pressure  
Sea Level Pressure 30.10 in    
Wind  
Wind Speed 4 mph (NNE)    
Max Wind Speed 10 mph    
Max Gust Speed 18 mph    
Visibility 10 miles    
Events Rain , Thunderstorm    
T = Trace of Precipitation, MM = Missing Value Source: NWS Daily Summary

Daily Weather History Graph

Daily Weather History Graph

Search for Another Location

Airport or City:

Astronomy

Aug. 07, 2019 Rise Set
Actual Time 6:04 AM MDT 8:08 PM MDT
Civil Twilight 5:34 AM MDT 8:37 PM MDT
Nautical Twilight 4:58 AM MDT 9:14 PM MDT
Astronomical Twilight 4:18 AM MDT 9:53 PM MDT
Moon 1:39 PM MDT (8/7) No Moon Set
Length of Visible Light 15h 02m
Length of Day
14h 03m
Waxing Crescent, 50% of the Moon is Illuminated
Aug 7
Waxing Crescent
Aug 15
Full
Aug 23
Last Quarter
Aug 30
New
Sep 5
First Quarter

Hourly Weather History & Observations

Time (MDT) Temp. Heat Index Dew Point Humidity Pressure Visibility Wind Dir Wind Speed Gust Speed Precip Events Conditions
12:12 AM 69.8 °F - 44.6 °F 40% 30.07 in 10.0 mi West 4.6 mph - N/A   Clear
12:30 AM 71.6 °F - 42.8 °F 35% 30.07 in 10.0 mi Calm Calm - N/A   Clear
12:48 AM 77.0 °F - 41.0 °F 28% 30.06 in 10.0 mi WSW 6.9 mph - N/A   Clear
1:11 AM 78.8 °F - 39.2 °F 24% 30.06 in 10.0 mi WSW 9.2 mph - N/A   Clear
1:29 AM 78.8 °F - 39.2 °F 24% 30.06 in 10.0 mi SW 8.1 mph - N/A   Clear
1:53 AM 77.0 °F - 41.0 °F 28% 30.06 in 10.0 mi ESE 5.8 mph - N/A   Clear
2:12 AM 75.2 °F - 37.4 °F 25% 30.06 in 10.0 mi SSW 5.8 mph - N/A   Clear
2:30 AM 68.0 °F - 46.4 °F 46% 30.07 in 10.0 mi NNW 11.5 mph - N/A   Clear
2:48 AM 68.0 °F - 46.4 °F 46% 30.07 in 10.0 mi NNW 5.8 mph - N/A   Clear
3:12 AM 69.8 °F - 44.6 °F 40% 30.07 in 10.0 mi WNW 4.6 mph - N/A   Clear
3:30 AM 69.8 °F - 46.4 °F 43% 30.07 in 10.0 mi WSW 3.5 mph - N/A   Clear
3:48 AM 68.0 °F - 44.6 °F 43% 30.07 in 10.0 mi South 3.5 mph - N/A   Clear
4:12 AM 68.0 °F - 46.4 °F 46% 30.07 in 10.0 mi SSE 3.5 mph - N/A   Clear
4:30 AM 68.0 °F - 46.4 °F 46% 30.07 in 10.0 mi Calm Calm - N/A   Clear
4:54 AM 64.4 °F - 46.4 °F 52% 30.06 in 10.0 mi Calm Calm - N/A   Clear
5:12 AM 64.4 °F - 46.4 °F 52% 30.06 in 10.0 mi Calm Calm - N/A   Clear
5:30 AM 62.6 °F - 48.2 °F 59% 30.06 in 10.0 mi Calm Calm - N/A   Clear
5:54 AM 62.6 °F - 48.2 °F 59% 30.08 in 10.0 mi NE 4.6 mph - N/A   Clear
6:13 AM 62.6 °F - 50.0 °F 63% 30.10 in 10.0 mi Calm Calm - N/A   Clear
6:31 AM 64.4 °F - 50.0 °F 59% 30.11 in 10.0 mi WSW 3.5 mph - N/A   Clear
6:49 AM 66.2 °F - 50.0 °F 56% 30.12 in 10.0 mi Calm Calm - N/A   Clear
7:12 AM 69.8 °F - 51.8 °F 53% 30.13 in 10.0 mi Calm Calm - N/A   Clear
7:30 AM 69.8 °F - 51.8 °F 53% 30.13 in 10.0 mi Calm Calm - N/A   Clear
7:54 AM 71.6 °F - 48.2 °F 43% 30.14 in 10.0 mi Calm Calm - N/A   Clear
8:12 AM 71.6 °F - 50.0 °F 46% 30.14 in 10.0 mi North 3.5 mph - N/A   Clear
8:30 AM 71.6 °F - 50.0 °F 46% 30.14 in 10.0 mi North 8.1 mph - N/A   Clear
8:54 AM 73.4 °F - 50.0 °F 44% 30.15 in 10.0 mi North 6.9 mph - N/A   Clear
9:12 AM 73.4 °F - 50.0 °F 44% 30.15 in 10.0 mi North 8.1 mph - N/A   Clear
9:30 AM 73.4 °F - 51.8 °F 47% 30.15 in 10.0 mi North 9.2 mph - N/A   Clear
9:54 AM 75.2 °F - 51.8 °F 44% 30.15 in 10.0 mi North 8.1 mph - N/A   Clear
10:12 AM 75.2 °F - 51.8 °F 44% 30.15 in 10.0 mi NNE 8.1 mph - N/A   Clear
10:48 AM 77.0 °F - 51.8 °F 41% 30.15 in 10.0 mi Calm Calm - N/A   Clear
11:12 AM 78.8 °F - 53.6 °F 42% 30.14 in 10.0 mi ENE 4.6 mph - N/A   Clear
11:30 AM 78.8 °F - 51.8 °F 39% 30.14 in 10.0 mi Calm Calm - N/A   Clear
11:48 AM 78.8 °F - 51.8 °F 39% 30.14 in 10.0 mi NE 5.8 mph - N/A   Clear
12:12 PM 80.6 °F - 50.0 °F 34% 30.13 in 10.0 mi NE 5.8 mph - N/A   Clear
12:30 PM 80.6 °F - 50.0 °F 34% 30.12 in 10.0 mi North 3.5 mph - N/A   Clear
12:48 PM 80.6 °F - 46.4 °F 30% 30.12 in 10.0 mi NNE 3.5 mph - N/A   Clear
1:12 PM 82.4 °F - 50.0 °F 32% 30.11 in 10.0 mi NNE 6.9 mph - N/A   Clear
1:30 PM 82.4 °F - 50.0 °F 32% 30.10 in 10.0 mi NNW 5.8 mph - N/A   Scattered Clouds
1:48 PM 84.2 °F - 51.8 °F 33% 30.10 in 10.0 mi East 5.8 mph - N/A   Scattered Clouds
2:12 PM 84.2 °F - 50.0 °F 30% 30.09 in 10.0 mi Calm Calm - N/A   Clear
2:32 PM 86.0 °F - 50.0 °F 29% 30.08 in 10.0 mi SSE 4.6 mph - N/A   Clear
2:49 PM 86.0 °F - 50.0 °F 29% 30.07 in 7.0 mi Calm Calm - N/A   Clear
3:13 PM 87.8 °F - 51.8 °F 29% 30.07 in 10.0 mi SSE 8.1 mph - N/A   Clear
3:31 PM 86.0 °F - 51.8 °F 31% 30.07 in 10.0 mi SSE 8.1 mph - N/A   Clear
3:49 PM 86.0 °F - 50.0 °F 29% 30.07 in 10.0 mi SSE 5.8 mph - N/A   Scattered Clouds
4:12 PM 86.0 °F - 50.0 °F 29% 30.07 in 10.0 mi Calm Calm - N/A Thunderstorm Scattered Clouds
4:30 PM 84.2 °F - 50.0 °F 30% 30.07 in 10.0 mi NNE 4.6 mph - N/A   Clear
4:48 PM 86.0 °F - 50.0 °F 29% 30.07 in 10.0 mi ENE 3.5 mph - N/A   Clear
5:12 PM 82.4 °F - 51.8 °F 35% 30.08 in 10.0 mi North 13.8 mph 18.4 mph N/A   Scattered Clouds
5:30 PM 80.6 °F - 51.8 °F 37% 30.08 in 10.0 mi North 11.5 mph 16.1 mph N/A   Mostly Cloudy
5:48 PM 80.6 °F - 51.8 °F 37% 30.07 in 10.0 mi NNW 10.4 mph - N/A   Mostly Cloudy
6:08 PM 82.4 °F - 51.8 °F 35% 30.07 in 10.0 mi NNW 8.1 mph - N/A   Scattered Clouds
6:32 PM 82.4 °F - 51.8 °F 35% 30.07 in 10.0 mi North 5.8 mph - N/A   Scattered Clouds
6:50 PM 80.6 °F - 51.8 °F 37% 30.06 in 10.0 mi NNE 3.5 mph - N/A   Scattered Clouds
7:12 PM 80.6 °F 80.3 °F 53.6 °F 39% 30.06 in 10.0 mi ENE 3.5 mph - N/A   Scattered Clouds
7:30 PM 78.8 °F - 53.6 °F 42% 30.07 in 10.0 mi Calm Calm - N/A   Scattered Clouds
7:54 PM 78.8 °F - 53.6 °F 42% 30.07 in 10.0 mi ESE 3.5 mph - N/A   Mostly Cloudy
8:12 PM 78.8 °F - 53.6 °F 42% 30.08 in 10.0 mi Calm Calm - N/A   Mostly Cloudy
8:30 PM 77.0 °F - 53.6 °F 44% 30.09 in 10.0 mi Calm Calm - N/A Thunderstorm Overcast
8:54 PM 77.0 °F - 53.6 °F 44% 30.11 in 10.0 mi North 3.5 mph - N/A   Overcast
9:12 PM 68.0 °F - 59.0 °F 73% 30.12 in 5.0 mi NE 4.6 mph 11.5 mph 0.12 in Rain , Thunderstorm Light Thunderstorms and Rain
9:30 PM 68.0 °F - 60.8 °F 78% 30.13 in 10.0 mi SE 4.6 mph - 0.12 in   Scattered Clouds
9:54 PM 69.8 °F - 60.8 °F 73% 30.14 in 10.0 mi Calm Calm - 0.12 in   Mostly Cloudy
10:12 PM 68.0 °F - 62.6 °F 83% 30.14 in 10.0 mi Calm Calm - N/A   Mostly Cloudy
10:30 PM 68.0 °F - 62.6 °F 83% 30.14 in 10.0 mi NE 3.5 mph - N/A   Mostly Cloudy
10:54 PM 68.0 °F - 62.6 °F 83% 30.14 in 10.0 mi Calm Calm - N/A   Overcast
11:12 PM 69.8 °F - 60.8 °F 73% 30.13 in 10.0 mi SSW 3.5 mph - N/A   Overcast
11:30 PM 68.0 °F - 60.8 °F 78% 30.14 in 10.0 mi Calm Calm - N/A   Mostly Cloudy
11:53 PM 68.0 °F - 62.6 °F 83% 30.14 in 10.0 mi ESE 3.5 mph - N/A   Scattered Clouds